Time,TemperatureF,DewpointF,PressureIn,WindDirection,WindDirectionDegrees,WindSpeedMPH,WindSpeedGustMPH,Humidity,HourlyPrecipIn,Conditions,Clouds,dailyrainin,SoftwareType,DateUTC
2013-01-02 00:02:00,23.0,21.0,-100.00,West,270,1.0,2.0,91,-99.99,,,-99.99,,2013-01-02 08:02:00,
2013-01-02 00:10:00,23.0,21.0,-100.00,North,350,2.0,3.0,91,-99.99,,,-99.99,,2013-01-02 08:10:00,
2013-01-02 01:02:00,23.0,21.0,-100.00,North,350,2.0,3.0,91,-99.99,,,-99.99,,2013-01-02 09:02:00,
2013-01-02 01:10:00,23.0,21.0,-100.00,North,350,1.0,2.0,91,-99.99,,,-99.99,,2013-01-02 09:10:00,
2013-01-02 02:02:00,23.0,21.0,-100.00,North,350,1.0,2.0,91,-99.99,,,-99.99,,2013-01-02 10:02:00,
2013-01-02 02:10:00,23.0,21.0,-100.00,NNE,20,2.0,3.0,91,-99.99,,,-99.99,,2013-01-02 10:10:00,
2013-01-02 03:02:00,23.0,21.0,-100.00,NNE,20,2.0,3.0,91,-99.99,,,-99.99,,2013-01-02 11:02:00,
2013-01-02 03:10:00,23.0,21.0,-100.00,North,360,1.0,3.0,91,-99.99,,,-99.99,,2013-01-02 11:10:00,
2013-01-02 04:02:00,23.0,21.0,-100.00,North,360,1.0,3.0,91,-99.99,,,-99.99,,2013-01-02 12:02:00,
2013-01-02 04:10:00,23.0,21.0,-100.00,NNE,25,1.0,2.0,91,-99.99,,,-99.99,,2013-01-02 12:10:00,
2013-01-02 05:02:00,23.0,21.0,-100.00,NNE,25,1.0,2.0,91,-99.99,,,-99.99,,2013-01-02 13:02:00,
2013-01-02 05:10:00,23.0,21.0,-100.00,North,350,1.0,3.0,91,-99.99,,,-99.99,,2013-01-02 13:10:00,
2013-01-02 06:02:00,23.0,21.0,-100.00,North,350,1.0,3.0,91,-99.99,,,-99.99,,2013-01-02 14:02:00,
2013-01-02 06:10:00,23.0,21.0,-100.00,North,10,2.0,3.0,91,-99.99,,,-99.99,,2013-01-02 14:10:00,
2013-01-02 07:02:00,23.0,21.0,-100.00,North,10,2.0,3.0,91,-99.99,,,-99.99,,2013-01-02 15:02:00,
2013-01-02 07:10:00,23.0,22.0,-100.00,North,10,2.0,5.0,95,-99.99,,,-99.99,,2013-01-02 15:10:00,
2013-01-02 08:03:00,23.0,22.0,-100.00,North,10,2.0,5.0,95,-99.99,,,-99.99,,2013-01-02 16:03:00,
2013-01-02 08:10:00,23.0,22.0,-100.00,WNW,295,1.0,3.0,95,-99.99,,,-99.99,,2013-01-02 16:10:00,
2013-01-02 09:03:00,23.0,22.0,-100.00,WNW,295,1.0,3.0,95,-99.99,,,-99.99,,2013-01-02 17:03:00,
2013-01-02 09:10:00,24.0,22.0,-100.00,NE,40,1.0,3.0,91,-99.99,,,-99.99,,2013-01-02 17:10:00,
2013-01-02 10:02:00,24.0,22.0,-100.00,NE,40,1.0,3.0,91,-99.99,,,-99.99,,2013-01-02 18:02:00,
2013-01-02 10:10:00,25.0,23.0,-100.00,ENE,70,2.0,5.0,91,-99.99,,,-99.99,,2013-01-02 18:10:00,
2013-01-02 11:02:00,25.0,23.0,-100.00,ENE,70,2.0,5.0,91,-99.99,,,-99.99,,2013-01-02 19:02:00,
2013-01-02 11:10:00,26.0,22.0,-100.00,NNE,25,2.0,5.0,84,-99.99,,,-99.99,,2013-01-02 19:10:00,
2013-01-02 12:02:00,26.0,22.0,-100.00,NNE,25,2.0,5.0,84,-99.99,,,-99.99,,2013-01-02 20:02:00,
2013-01-02 12:10:00,27.0,21.0,-100.00,NE,35,2.0,3.0,77,-99.99,,,-99.99,,2013-01-02 20:10:00,
2013-01-02 13:03:00,27.0,21.0,-100.00,NE,35,2.0,3.0,77,-99.99,,,-99.99,,2013-01-02 21:03:00,
2013-01-02 13:10:00,27.0,21.0,-100.00,NNE,15,3.0,6.0,77,-99.99,,,-99.99,,2013-01-02 21:10:00,
2013-01-02 14:02:00,27.0,21.0,-100.00,NNE,15,3.0,6.0,77,-99.99,,,-99.99,,2013-01-02 22:02:00,
2013-01-02 14:10:00,27.0,21.0,-100.00,NNW,345,1.0,3.0,77,-99.99,,,-99.99,,2013-01-02 22:10:00,
2013-01-02 15:02:00,27.0,21.0,-100.00,NNW,345,1.0,3.0,77,-99.99,,,-99.99,,2013-01-02 23:02:00,
2013-01-02 15:10:00,27.0,20.0,-100.00,North,355,3.0,5.0,74,-99.99,,,-99.99,,2013-01-02 23:10:00,
2013-01-02 16:02:00,27.0,20.0,-100.00,North,355,3.0,5.0,74,-99.99,,,-99.99,,2013-01-03 00:02:00,
2013-01-02 16:10:00,26.0,20.0,-100.00,North,350,2.0,5.0,77,-99.99,,,-99.99,,2013-01-03 00:10:00,
2013-01-02 17:02:00,26.0,20.0,-100.00,North,350,2.0,5.0,77,-99.99,,,-99.99,,2013-01-03 01:02:00,
2013-01-02 17:10:00,22.0,18.0,-100.00,SW,225,0.0,1.0,84,-99.99,,,-99.99,,2013-01-03 01:10:00,
2013-01-02 18:02:00,22.0,18.0,-100.00,SW,225,0.0,1.0,84,-99.99,,,-99.99,,2013-01-03 02:02:00,
2013-01-02 18:10:00,20.0,17.0,-100.00,SE,140,0.0,2.0,87,-99.99,,,-99.99,,2013-01-03 02:10:00,
2013-01-02 19:02:00,20.0,17.0,-100.00,SE,140,0.0,2.0,87,-99.99,,,-99.99,,2013-01-03 03:02:00,
2013-01-02 19:10:00,18.0,15.0,-100.00,SSW,195,0.0,1.0,87,-99.99,,,-99.99,,2013-01-03 03:10:00,
2013-01-02 20:02:00,18.0,15.0,-100.00,SSW,195,0.0,1.0,87,-99.99,,,-99.99,,2013-01-03 04:02:00,
2013-01-02 20:10:00,16.0,14.0,-100.00,SSW,195,0.0,2.0,91,-99.99,,,-99.99,,2013-01-03 04:10:00,
2013-01-02 21:03:00,16.0,14.0,-100.00,SSW,195,0.0,2.0,91,-99.99,,,-99.99,,2013-01-03 05:03:00,
2013-01-02 21:10:00,15.0,13.0,-100.00,SSW,210,0.0,2.0,91,-99.99,,,-99.99,,2013-01-03 05:10:00,
2013-01-02 22:02:00,15.0,13.0,-100.00,SSW,210,0.0,2.0,91,-99.99,,,-99.99,,2013-01-03 06:02:00,
2013-01-02 22:10:00,15.0,14.0,-100.00,North,-999,0.0,0.0,95,-99.99,,,-99.99,,2013-01-03 06:10:00,
2013-01-02 23:02:00,15.0,14.0,-100.00,North,-999,0.0,0.0,95,-99.99,,,-99.99,,2013-01-03 07:02:00,
2013-01-02 23:10:00,15.0,14.0,-100.00,South,190,0.0,2.0,95,-99.99,,,-99.99,,2013-01-03 07:10:00,